This demonstration page uses our WeatherBlox Daily Observations layout. Learn more.

Left ArrowRight Arrow

38.88101, -77.10428

Hourly Observations for December 3, 2015

Temp ( °F °C ) Dew Point ( °F °C ) Humidity (%) Winds ( mph kmh ) Pressure ( in mb ) Visibility ( mi km ) Precip ( " mm )
12:52 am 00:52 Mostly Cloudy 52 11.1 38 3.3 59 59 NNW 13 20 29.80 1009 10 16 N/A
1:52 am 01:52 Mostly Cloudy 51 10.6 37 2.8 59 59 NW 10 17 29.80 1009 10 16 N/A
2:52 am 02:52 Cloudy 51 10.6 37 2.8 59 59 NW 7 11 29.83 1010 10 16 N/A
3:52 am 03:52 Partly Cloudy 49 9.4 35 1.7 59 59 WNW 13 20 29.87 1011 10 16 N/A
4:52 am 04:52 Mostly Clear 47 8.3 33 0.6 59 59 WNW 20 31 29.91 1013 10 16 N/A
5:52 am 05:52 Mostly Clear 44 6.7 28 -2.2 53 53 WNW 14 22 29.96 1015 10 16 N/A
6:52 am 06:52 Mostly Clear 43 6.1 25 -3.9 49 49 WNW 21 33 30.00 1016 10 16 N/A
7:52 am 07:52 Mostly Sunny 42 5.6 27 -2.8 55 55 W 7 11 30.04 1017 10 16 N/A
8:52 am 08:52 Sunny 45 7.2 27 -2.8 49 49 WNW 13 20 30.06 1018 10 16 N/A
9:52 am 09:52 Mostly Sunny 46 7.8 27 -2.8 47 47 WNW 17 28 30.08 1019 10 16 N/A
10:52 am 10:52 Mostly Sunny 48 8.9 27 -2.8 44 44 WNW 18 30 30.10 1019 10 16 N/A
11:52 am 11:52 Mostly Sunny 48 8.9 28 -2.2 46 46 NNW 25 41 30.10 1019 10 16 N/A
12:52 pm 12:52 Mostly Sunny 50 10 29 -1.7 44 44 NNW 20 31 30.11 1020 10 16 N/A
1:52 pm 13:52 Mostly Sunny 50 10 29 -1.7 44 44 NW 16 26 30.14 1021 10 16 N/A
2:52 pm 14:52 Partly Cloudy 49 9.4 29 -1.7 46 46 NW 22 35 30.17 1022 10 16 N/A
3:13 pm 15:13 Mostly Cloudy 48 8.9 28 -2.2 46 46 NW 21 33 30.18 1022 10 16 N/A
3:39 pm 15:39 Partly Cloudy 48 8.9 29 -1.7 48 48 NW 13 20 30.18 1022 10 16 N/A
3:52 pm 15:52 Partly Cloudy 48 8.9 29 -1.7 48 48 NW 15 24 30.19 1023 10 16 N/A
4:52 pm 16:52 Mostly Clear 46 7.8 28 -2.2 50 50 NW 14 22 30.23 1024 10 16 N/A
5:52 pm 17:52 Mostly Clear 45 7.2 29 -1.7 54 54 WNW 12 19 30.27 1025 10 16 N/A
6:52 pm 18:52 Mostly Clear 45 7.2 28 -2.2 52 52 NW 14 22 30.31 1026 10 16 N/A
7:52 pm 19:52 Mostly Clear 43 6.1 29 -1.7 58 58 W 9 15 30.33 1027 10 16 N/A
8:39 pm 20:39 Mostly Cloudy 44 6.7 29 -1.7 55 55 W 9 15 30.33 1027 10 16 N/A
8:52 pm 20:52 Mostly Cloudy 43 6.1 29 -1.7 58 58 W 7 11 30.34 1027 10 16 N/A
9:41 pm 21:41 Mostly Clear 43 6.1 29 -1.7 58 58 VRB 7 11 30.36 1028 10 16 N/A
9:52 pm 21:52 Mostly Clear 43 6.1 29 -1.7 58 58 W 9 15 30.35 1028 10 16 N/A
10:52 pm 22:52 Mostly Cloudy 42 5.6 29 -1.7 60 60 W 6 9 30.37 1029 10 16 N/A
11:52 pm 23:52 Cloudy 42 5.6 30 -1.1 62 62 WSW 6 9 30.39 1029 10 16 N/A

Powered by AerisWeather